This demonstration page uses our WeatherBlox Daily Observations layout. Learn more.

Hourly Observations for March 20, 2019

Temp ( °F °C ) Dew Point ( °F °C ) Humidity (%) Winds ( mph kmh ) Pressure ( in mb ) Visibility ( mi km ) Precip ( " mm )
12:15 am 00:15 Clear 32 0 30 -1 93 93 Calm 30.45 1031 10 16.09344 0 0
12:35 am 00:35 Clear 34 1 28 -2 81 81 Calm 30.45 1031 10 16.09344 0 0
12:55 am 00:55 Clear 34 1 28 -2 81 81 Calm 30.42 1030 10 16.09344 0 0
1:15 am 01:15 Clear 32 0 28 -2 87 87 Calm 30.42 1030 10 16.09344 0 0
1:35 am 01:35 Clear 32 0 28 -2 87 87 Calm 30.42 1030 10 16.09344 0 0
1:55 am 01:55 Clear 32 0 28 -2 87 87 W 3 6 30.42 1030 10 16.09344 0 0
2:15 am 02:15 Clear 32 0 30 -1 93 93 Calm 30.42 1030 10 16.09344 0 0
2:35 am 02:35 Clear 32 0 28 -2 87 87 W 3 6 30.42 1030 10 16.09344 0 0
2:55 am 02:55 Clear 32 0 28 -2 87 87 Calm 30.42 1030 10 16.09344 0 0
3:15 am 03:15 Clear 32 0 27 -3 80 80 Calm 30.42 1030 10 16.09344 0 0
3:35 am 03:35 Clear 34 1 27 -3 75 75 Calm 30.42 1030 10 16.09344 0 0
3:55 am 03:55 Clear 32 0 28 -2 87 87 Calm 30.42 1030 10 16.09344 0 0
4:15 am 04:15 Clear 32 0 27 -3 80 80 Calm 30.42 1030 10 16.09344 0 0
4:35 am 04:35 Clear 30 -1 28 -2 93 93 Calm 30.42 1030 10 16.09344 0 0
4:55 am 04:55 Clear 30 -1 28 -2 93 93 Calm 30.42 1030 10 16.09344 0 0
5:15 am 05:15 Clear 30 -1 28 -2 93 93 Calm 30.42 1030 10 16.09344 0 0
5:35 am 05:35 Clear 30 -1 28 -2 93 93 Calm 30.42 1030 10 16.09344 0 0
5:55 am 05:55 Clear 30 -1 28 -2 93 93 Calm 30.42 1030 10 16.09344 0 0
6:15 am 06:15 Clear 30 -1 28 -2 93 93 Calm 30.42 1030 10 16.09344 0 0
6:35 am 06:35 Clear 30 -1 28 -2 93 93 Calm 30.42 1030 10 16.09344 0 0
6:55 am 06:55 Clear 32 0 28 -2 87 87 Calm 30.42 1030 10 16.09344 0 0
7:15 am 07:15 Sunny 32 0 28 -2 87 87 Calm 30.42 1030 10 16.09344 0 0
7:35 am 07:35 Sunny 30 -1 28 -2 93 93 Calm 30.42 1030 10 16.09344 0 0
7:55 am 07:55 Sunny 32 0 28 -2 87 87 Calm 30.42 1030 10 16.09344 0 0
8:15 am 08:15 Sunny 32 0 30 -1 93 93 Calm 30.42 1030 10 16.09344 0 0
8:35 am 08:35 Sunny 34 1 30 -1 87 87 Calm 30.42 1030 10 16.09344 0 0
8:55 am 08:55 Sunny 34 1 30 -1 87 87 Calm 30.42 1030 10 16.09344 0 0
9:15 am 09:15 Sunny 36 2 30 -1 81 81 Calm 30.42 1030 10 16.09344 0 0
9:35 am 09:35 Sunny 37 3 30 -1 75 75 Calm 30.42 1030 10 16.09344 0 0
9:55 am 09:55 Sunny 41 5 32 0 70 70 Calm 30.42 1030 10 16.09344 0 0
10:15 am 10:15 Sunny 43 6 30 -1 61 61 SW 3 6 30.42 1030 10 16.09344 0 0
10:35 am 10:35 Sunny 45 7 30 -1 57 57 SW 5 7 30.42 1030 10 16.09344 0 0
10:55 am 10:55 Sunny 46 8 28 -2 50 50 S 9 15 30.42 1030 10 16.09344 0 0
11:15 am 11:15 Sunny 48 9 27 -3 43 43 SSW 10 17 30.42 1030 10 16.09344 0 0
11:35 am 11:35 Sunny 48 9 25 -4 40 40 SSE 13 20 30.42 1030 10 16.09344 0 0
11:55 am 11:55 Sunny 50 10 27 -3 40 40 S 12 19 30.42 1030 10 16.09344 0 0
12:15 pm 12:15 Sunny 50 10 23 -5 35 35 SSE 14 22 30.39 1029 10 16.09344 0 0
12:35 pm 12:35 Sunny 50 10 27 -3 40 40 SSW 12 19 30.39 1029 10 16.09344 0 0
12:55 pm 12:55 Sunny 52 11 25 -4 35 35 S 12 19 30.39 1029 10 16.09344 0 0
1:15 pm 13:15 Sunny 50 10 23 -5 35 35 SSE 6 9 30.39 1029 10 16.09344 0 0
1:35 pm 13:35 Sunny 52 11 27 -3 38 38 SE 9 15 30.36 1028 10 16.09344 0 0
1:55 pm 13:55 Sunny 52 11 25 -4 35 35 S 12 19 30.36 1028 10 16.09344 0 0
2:15 pm 14:15 Sunny 52 11 23 -5 32 32 S 5 7 30.33 1027 10 16.09344 0 0
2:35 pm 14:35 Sunny 54 12 25 -4 33 33 Calm 30.33 1027 10 16.09344 0 0
2:55 pm 14:55 Sunny 55 13 25 -4 31 31 SSE 9 15 30.27 1025 10 16.09344 0 0
3:15 pm 15:15 Sunny 54 12 25 -4 33 33 SE 5 7 30.3 1026 10 16.09344 0 0
3:35 pm 15:35 Sunny 54 12 27 -3 35 35 SE 8 13 30.3 1026 10 16.09344 0 0
3:55 pm 15:55 Sunny 54 12 27 -3 35 35 SSE 7 11 30.24 1024 10 16.09344 0 0
4:15 pm 16:15 Sunny 55 13 27 -3 33 33 S 9 15 30.24 1024 10 16.09344 0 0
4:35 pm 16:35 Sunny 54 12 27 -3 35 35 ESE 7 11 30.24 1024 10 16.09344 0 0
4:55 pm 16:55 Sunny 54 12 27 -3 35 35 S 5 7 30.24 1024 10 16.09344 0 0
5:15 pm 17:15 Sunny 54 12 27 -3 35 35 ESE 7 11 30.24 1024 10 16.09344 0 0
5:35 pm 17:35 Sunny 54 12 27 -3 35 35 S 9 15 30.21 1023 10 16.09344 0 0
5:55 pm 17:55 Sunny 54 12 28 -2 38 38 S 8 13 30.21 1023 10 16.09344 0 0
6:15 pm 18:15 Sunny 54 12 27 -3 35 35 SE 7 11 30.21 1023 10 16.09344 0 0
6:35 pm 18:35 Partly Cloudy 54 12 27 -3 35 35 S 7 11 30.21 1023 10 16.09344 0 0
6:55 pm 18:55 Mostly Cloudy 54 12 28 -2 38 38 S 8 13 30.21 1023 10 16.09344 0 0
7:15 pm 19:15 Mostly Cloudy 52 11 28 -2 41 41 SSE 6 9 30.24 1024 10 16.09344 0 0
7:35 pm 19:35 Partly Cloudy 52 11 25 -4 35 35 SSE 9 15 30.24 1024 10 16.09344 0 0
7:55 pm 19:55 Mostly Cloudy 52 11 27 -3 38 38 SSE 8 13 30.24 1024 10 16.09344 0 0
8:15 pm 20:15 Partly Cloudy 52 11 27 -3 38 38 SSE 9 15 30.24 1024 10 16.09344 0 0
8:35 pm 20:35 Clear 50 10 27 -3 40 40 SSE 8 13 30.24 1024 10 16.09344 0 0
8:55 pm 20:55 Clear 50 10 27 -3 40 40 SE 5 7 30.24 1024 10 16.09344 0 0
9:15 pm 21:15 Partly Cloudy 50 10 28 -2 43 43 SSE 5 7 30.24 1024 10 16.09344 0 0
9:35 pm 21:35 Clear 48 9 28 -2 46 46 SSE 6 9 30.24 1024 10 16.09344 0 0
9:55 pm 21:55 Clear 50 10 28 -2 43 43 SSE 6 9 30.27 1025 10 16.09344 0 0
10:15 pm 22:15 Partly Cloudy 48 9 28 -2 46 46 SSE 8 13 30.24 1024 10 16.09344 0 0
10:35 pm 22:35 Mostly Cloudy 50 10 30 -1 47 47 SSE 3 6 30.27 1025 10 16.09344 0 0
10:55 pm 22:55 Cloudy 48 9 30 -1 50 50 SE 3 6 30.24 1024 10 16.09344 0 0
11:15 pm 23:15 Cloudy 46 8 30 -1 53 53 SE 7 11 30.24 1024 10 16.09344 0 0
11:35 pm 23:35 Mostly Cloudy 46 8 32 0 57 57 SE 7 11 30.21 1023 10 16.09344 0 0
11:55 pm 23:55 Partly Cloudy 46 8 32 0 57 57 SE 6 9 30.21 1023 10 16.09344 0 0

Powered by AerisWeather